| time (UTC) | temp F | wind direction | speed knots | gust knots | rain 1hr in | rain 24hr in | rain mn in | humidity % | barometer mb |
| 20260503053505 | 52 | 181 | 0.0 | 1.7 | 0.00 | 0.00 | 0.00 | 62 | 1013.5 |
| 20260503052505 | 53 | 187 | 0.0 | 1.7 | 0.00 | 0.00 | 0.00 | 61 | 1013.3 |
| 20260503051006 | 50 | 188 | 1.7 | 1.7 | 0.00 | 0.00 | 0.00 | 63 | 1013.6 |
| 20260503050505 | 50 | 175 | 1.7 | 1.7 | 0.00 | 0.00 | 0.00 | 64 | 1013.5 |
| 20260503050006 | 50 | 184 | 1.7 | 1.7 | 0.00 | 0.00 | 0.00 | 63 | 1013.5 |
| 20260503045505 | 50 | 188 | 1.7 | 3.5 | 0.00 | 0.00 | 0.00 | 63 | 1013.2 |
| 20260503045005 | 50 | 191 | 1.7 | 3.5 | 0.00 | 0.00 | 0.00 | 63 | 1013.3 |
| 20260503044505 | 50 | 196 | 1.7 | 1.7 | 0.00 | 0.00 | 0.00 | 63 | 1013.5 |
| 20260503044006 | 51 | 194 | 1.7 | 1.7 | 0.00 | 0.00 | 0.00 | 63 | 1013.5 |
| 20260503043505 | 51 | 185 | 1.7 | 1.7 | 0.00 | 0.00 | 0.00 | 63 | 1013.4 |
| 20260503043005 | 50 | 196 | 0.0 | 3.5 | 0.00 | 0.00 | 0.00 | 63 | 1013.5 |
| 20260503042505 | 50 | 199 | 1.7 | 3.5 | 0.00 | 0.00 | 0.00 | 65 | 1013.5 |
| 20260503042006 | 50 | 196 | 1.7 | 1.7 | 0.00 | 0.00 | 0.00 | 64 | 1013.5 |
| 20260503041006 | 50 | 195 | 1.7 | 1.7 | 0.00 | 0.00 | 0.00 | 64 | 1013.4 |
| 20260503040505 | 50 | 195 | 1.7 | 1.7 | 0.00 | 0.00 | 0.00 | 63 | 1013.5 |
| 20260503040006 | 50 | 185 | 1.7 | 1.7 | 0.00 | 0.00 | 0.00 | 63 | 1013.5 |
| 20260503035505 | 51 | 155 | 1.7 | 1.7 | 0.00 | 0.00 | 0.00 | 62 | 1013.7 |
| 20260503035005 | 51 | 0 | 0.0 | 0.0 | 0.00 | 0.00 | 0.00 | 58 | 1013.6 |
| 20260503034505 | 51 | 112 | 0.0 | 1.7 | 0.00 | 0.00 | 0.00 | 58 | 1013.7 |
| 20260503034006 | 50 | 112 | 0.0 | 1.7 | 0.00 | 0.00 | 0.00 | 59 | 1013.6 |
| 20260503033005 | 50 | 0 | 0.0 | 0.0 | 0.00 | 0.00 | 0.00 | 59 | 1013.6 |
| 20260503032005 | 49 | 0 | 0.0 | 0.0 | 0.00 | 0.00 | 0.00 | 60 | 1013.7 |
| 20260503031505 | 49 | 0 | 0.0 | 0.0 | 0.00 | 0.00 | 0.00 | 61 | 1013.6 |
| 20260503031005 | 49 | 0 | 0.0 | 0.0 | 0.00 | 0.00 | 0.00 | 61 | 1013.4 |
| 20260503030505 | 49 | 0 | 0.0 | 0.0 | 0.00 | 0.00 | 0.00 | 61 | 1013.4 |
| 20260503030006 | 49 | 0 | 0.0 | 0.0 | 0.00 | 0.00 | 0.00 | 60 | 1013.5 |
| 20260503025506 | 49 | 0 | 0.0 | 0.0 | 0.00 | 0.00 | 0.00 | 60 | 1013.7 |
| 20260503025005 | 50 | 112 | 0.0 | 1.7 | 0.00 | 0.00 | 0.00 | 62 | 1013.6 |
| 20260503024505 | 50 | 120 | 0.0 | 3.5 | 0.00 | 0.00 | 0.00 | 60 | 1013.9 |
| 20260503023505 | 51 | 125 | 1.7 | 1.7 | 0.00 | 0.00 | 0.00 | 58 | 1013.8 |
| 20260503023006 | 51 | 129 | 1.7 | 1.7 | 0.00 | 0.00 | 0.00 | 60 | 1013.8 |
| 20260503022506 | 50 | 153 | 0.9 | 1.7 | 0.00 | 0.00 | 0.00 | 61 | 1013.9 |
| 20260503022005 | 49 | 304 | 0.0 | 1.7 | 0.00 | 0.00 | 0.00 | 62 | 1013.8 |
| 20260503021505 | 49 | 314 | 0.0 | 1.7 | 0.00 | 0.00 | 0.00 | 60 | 1013.8 |
| 20260503021005 | 49 | 314 | 0.0 | 1.7 | 0.00 | 0.00 | 0.00 | 63 | 1014.0 |
| 20260503020505 | 48 | 314 | 0.0 | 1.7 | 0.00 | 0.00 | 0.00 | 65 | 1013.9 |
| 20260503020005 | 49 | 314 | 0.0 | 1.7 | 0.00 | 0.00 | 0.00 | 66 | 1013.8 |
| 20260503015506 | 49 | 314 | 0.9 | 1.7 | 0.00 | 0.00 | 0.00 | 66 | 1013.7 |
| 20260503014506 | 49 | 312 | 1.7 | 1.7 | 0.00 | 0.00 | 0.00 | 65 | 1014.3 |
| 20260503014005 | 49 | 301 | 1.7 | 1.7 | 0.00 | 0.00 | 0.00 | 64 | 1014.1 |
| 20260503013505 | 49 | 293 | 1.7 | 1.7 | 0.00 | 0.00 | 0.00 | 63 | 1014.0 |
| 20260503013005 | 50 | 293 | 1.7 | 1.7 | 0.00 | 0.00 | 0.00 | 63 | 1014.2 |
| 20260503011506 | 50 | 292 | 1.7 | 1.7 | 0.00 | 0.00 | 0.00 | 63 | 1014.4 |
| 20260503010505 | 49 | 292 | 1.7 | 1.7 | 0.00 | 0.00 | 0.00 | 63 | 1014.6 |
| 20260503010005 | 49 | 292 | 0.9 | 1.7 | 0.00 | 0.00 | 0.00 | 63 | 1014.3 |
| 20260503005505 | 49 | 292 | 0.9 | 1.7 | 0.00 | 0.00 | 0.00 | 63 | 1014.4 |
| 20260503005005 | 49 | 292 | 0.9 | 1.7 | 0.00 | 0.00 | 0.00 | 62 | 1014.6 |
| 20260503004505 | 49 | 292 | 0.9 | 1.7 | 0.00 | 0.00 | 0.00 | 62 | 1014.6 |
| 20260503004005 | 49 | 288 | 0.9 | 1.7 | 0.00 | 0.00 | 0.00 | 61 | 1014.5 |
| 20260503002505 | 49 | 279 | 0.9 | 1.7 | 0.00 | 0.00 | 0.00 | 61 | 1014.8 |
| 20260503001505 | 50 | 313 | 0.9 | 1.7 | 0.00 | 0.00 | 0.00 | 60 | 1014.9 |
| 20260503001006 | 50 | 314 | 0.9 | 1.7 | 0.00 | 0.00 | 0.00 | 59 | 1014.7 |
| 20260503000505 | 50 | 314 | 0.9 | 1.7 | 0.00 | 0.00 | 0.00 | 59 | 1014.9 |
| 20260503000006 | 50 | 314 | 0.9 | 1.7 | 0.00 | 0.00 | 0.00 | 59 | 1015.0 |
| 20260502235505 | 50 | 314 | 1.7 | 1.7 | 0.00 | 0.00 | 0.00 | 59 | 1015.1 |
| 20260502235006 | 50 | 312 | 0.9 | 1.7 | 0.00 | 0.00 | 0.00 | 58 | 1015.2 |
| 20260502234505 | 50 | 313 | 1.7 | 1.7 | 0.00 | 0.00 | 0.00 | 58 | 1015.2 |
| 20260502234006 | 50 | 311 | 1.7 | 1.7 | 0.00 | 0.00 | 0.00 | 59 | 1015.1 |
| 20260502232505 | 49 | 307 | 1.7 | 1.7 | 0.00 | 0.00 | 0.00 | 62 | 1015.3 |
| 20260502232005 | 49 | 314 | 1.7 | 1.7 | 0.00 | 0.00 | 0.00 | 62 | 1015.2 |
| 20260502230505 | 49 | 286 | 1.7 | 1.7 | 0.00 | 0.00 | 0.00 | 64 | 1015.2 |
| 20260502230005 | 49 | 289 | 1.7 | 1.7 | 0.00 | 0.00 | 0.00 | 66 | 1015.3 |
| 20260502225505 | 49 | 290 | 1.7 | 1.7 | 0.00 | 0.00 | 0.00 | 66 | 1015.4 |
| 20260502225006 | 49 | 292 | 1.7 | 1.7 | 0.00 | 0.00 | 0.00 | 65 | 1015.3 |
| 20260502224005 | 49 | 292 | 1.7 | 1.7 | 0.00 | 0.00 | 0.00 | 65 | 1015.5 |
| 20260502223505 | 49 | 292 | 0.9 | 1.7 | 0.00 | 0.00 | 0.00 | 66 | 1015.7 |
| 20260502223005 | 49 | 288 | 1.7 | 1.7 | 0.00 | 0.00 | 0.00 | 65 | 1015.6 |
| 20260502222505 | 49 | 288 | 0.9 | 1.7 | 0.00 | 0.00 | 0.00 | 65 | 1015.3 |
| 20260502221506 | 50 | 282 | 0.9 | 1.7 | 0.00 | 0.00 | 0.00 | 63 | 1015.7 |
| 20260502220009 | 50 | 266 | 1.7 | 1.7 | 0.00 | 0.00 | 0.00 | 63 | 1015.6 |
| 20260502214506 | 50 | 269 | 1.7 | 1.7 | 0.00 | 0.00 | 0.00 | 62 | 1015.5 |
| 20260502214005 | 50 | 267 | 0.9 | 1.7 | 0.00 | 0.00 | 0.00 | 64 | 1015.6 |
| 20260502213506 | 50 | 256 | 1.7 | 1.7 | 0.00 | 0.00 | 0.00 | 65 | 1015.8 |
| 20260502213005 | 50 | 230 | 1.7 | 3.5 | 0.00 | 0.00 | 0.00 | 65 | 1015.4 |
| 20260502212506 | 50 | 219 | 1.7 | 3.5 | 0.00 | 0.00 | 0.00 | 63 | 1015.6 |
| 20260502211506 | 50 | 218 | 1.7 | 1.7 | 0.00 | 0.00 | 0.00 | 64 | 1015.7 |
| 20260502211005 | 50 | 211 | 0.9 | 3.5 | 0.00 | 0.00 | 0.00 | 64 | 1015.8 |
| 20260502210506 | 50 | 206 | 1.7 | 3.5 | 0.00 | 0.00 | 0.00 | 64 | 1015.7 |
| 20260502210005 | 50 | 199 | 1.7 | 3.5 | 0.00 | 0.00 | 0.00 | 64 | 1015.6 |
| 20260502205505 | 51 | 194 | 1.7 | 3.5 | 0.00 | 0.00 | 0.00 | 64 | 1015.8 |
| 20260502205005 | 51 | 191 | 2.6 | 3.5 | 0.00 | 0.00 | 0.00 | 64 | 1015.5 |
| 20260502204506 | 51 | 187 | 2.6 | 3.5 | 0.00 | 0.00 | 0.00 | 64 | 1015.6 |
| 20260502204005 | 51 | 162 | 1.7 | 1.7 | 0.00 | 0.00 | 0.00 | 64 | 1015.7 |
| 20260502203505 | 51 | 153 | 1.7 | 1.7 | 0.00 | 0.00 | 0.00 | 64 | 1015.7 |
| 20260502203005 | 51 | 155 | 1.7 | 1.7 | 0.00 | 0.00 | 0.00 | 64 | 1015.8 |
| 20260502202505 | 51 | 151 | 1.7 | 3.5 | 0.00 | 0.00 | 0.00 | 63 | 1016.0 |
| 20260502202005 | 51 | 136 | 1.7 | 3.5 | 0.00 | 0.00 | 0.00 | 63 | 1015.8 |
| 20260502201505 | 51 | 128 | 1.7 | 1.7 | 0.00 | 0.00 | 0.00 | 62 | 1015.7 |
| 20260502201006 | 51 | 135 | 1.7 | 1.7 | 0.00 | 0.00 | 0.00 | 63 | 1015.0 |
| 20260502200505 | 51 | 158 | 0.0 | 1.7 | 0.00 | 0.00 | 0.00 | 64 | 1015.5 |
| 20260502195005 | 51 | 158 | 0.0 | 1.7 | 0.00 | 0.00 | 0.00 | 64 | 1015.7 |
| 20260502194505 | 51 | 157 | 1.7 | 1.7 | 0.00 | 0.00 | 0.00 | 64 | 1015.7 |
| 20260502194005 | 52 | 157 | 1.7 | 1.7 | 0.00 | 0.00 | 0.00 | 63 | 1015.6 |
| 20260502192505 | 52 | 143 | 2.6 | 3.5 | 0.00 | 0.00 | 0.00 | 63 | 1015.5 |
| 20260502192006 | 51 | 147 | 2.6 | 3.5 | 0.00 | 0.00 | 0.00 | 64 | 1015.7 |
| 20260502191505 | 51 | 150 | 1.7 | 3.5 | 0.00 | 0.00 | 0.00 | 64 | 1015.8 |
| 20260502191005 | 51 | 147 | 2.6 | 3.5 | 0.00 | 0.00 | 0.00 | 65 | 1015.6 |
| 20260502190005 | 51 | 133 | 3.5 | 5.2 | 0.00 | 0.00 | 0.00 | 65 | 1015.7 |
| 20260502185505 | 51 | 133 | 2.6 | 5.2 | 0.00 | 0.00 | 0.00 | 65 | 1015.4 |
| 20260502185005 | 51 | 135 | 3.5 | 5.2 | 0.00 | 0.00 | 0.00 | 65 | 1015.4 |
| 20260502184506 | 51 | 134 | 3.5 | 5.2 | 0.00 | 0.00 | 0.00 | 65 | 1015.5 |
| 20260502184005 | 51 | 132 | 3.5 | 5.2 | 0.00 | 0.00 | 0.00 | 64 | 1015.7 |
| 20260502183006 | 51 | 129 | 3.5 | 5.2 | 0.00 | 0.00 | 0.00 | 65 | 1015.5 |
| 20260502182505 | 51 | 129 | 3.5 | 5.2 | 0.00 | 0.00 | 0.00 | 65 | 1015.4 |
| 20260502182005 | 51 | 130 | 3.5 | 5.2 | 0.00 | 0.00 | 0.00 | 66 | 1015.4 |
| 20260502181505 | 51 | 130 | 3.5 | 6.1 | 0.00 | 0.00 | 0.00 | 66 | 1015.5 |
| 20260502181006 | 51 | 127 | 3.5 | 6.1 | 0.00 | 0.00 | 0.00 | 65 | 1015.4 |
| 20260502180505 | 51 | 129 | 4.3 | 6.1 | 0.00 | 0.00 | 0.00 | 65 | 1015.4 |
| 20260502170505 | 52 | 112 | 1.7 | 3.5 | 0.00 | 0.00 | 0.00 | 63 | 1015.5 |
| 20260502164006 | 53 | 109 | 3.5 | 5.2 | 0.00 | 0.00 | 0.00 | 62 | 1015.3 |
| 20260502163005 | 53 | 99 | 3.5 | 6.1 | 0.00 | 0.00 | 0.00 | 62 | 1015.6 |
| 20260502162006 | 53 | 112 | 3.5 | 6.1 | 0.00 | 0.00 | 0.00 | 62 | 1015.6 |
| 20260502160506 | 53 | 95 | 3.5 | 6.1 | 0.00 | 0.00 | 0.00 | 62 | 1015.6 |
| 20260502152006 | 54 | 102 | 2.6 | 5.2 | 0.00 | 0.00 | 0.00 | 61 | 1016.0 |
| 20260502151505 | 55 | 101 | 1.7 | 5.2 | 0.00 | 0.00 | 0.00 | 62 | 1016.0 |
| 20260502151006 | 54 | 93 | 3.5 | 6.1 | 0.00 | 0.00 | 0.00 | 61 | 1016.3 |
| 20260502150505 | 54 | 90 | 3.5 | 6.1 | 0.00 | 0.00 | 0.00 | 61 | 1015.8 |
| 20260502130505 | 56 | 87 | 1.7 | 7.0 | 0.00 | 0.00 | 0.00 | 62 | 1017.2 |
| 20260502123505 | 57 | 87 | 1.7 | 5.2 | 0.00 | 0.00 | 0.00 | 57 | 1016.8 |
| 20260502123005 | 57 | 86 | 0.0 | 5.2 | 0.00 | 0.00 | 0.00 | 60 | 1017.2 |
| 20260502122505 | 57 | 90 | 1.7 | 5.2 | 0.00 | 0.00 | 0.00 | 57 | 1017.3 |
| 20260502122005 | 58 | 100 | 0.9 | 3.5 | 0.00 | 0.00 | 0.00 | 59 | 1017.4 |
| 20260502121505 | 58 | 95 | 0.9 | 7.0 | 0.00 | 0.00 | 0.00 | 62 | 1016.7 |
| 20260502120506 | 58 | 100 | 1.7 | 5.2 | 0.00 | 0.00 | 0.00 | 63 | 1017.4 |
| 20260502115505 | 55 | 112 | 2.6 | 5.2 | 0.00 | 0.00 | 0.00 | 60 | 1016.9 |
| 20260502115006 | 56 | 105 | 1.7 | 5.2 | 0.00 | 0.00 | 0.00 | 62 | 1017.0 |
| 20260502114005 | 56 | 114 | 1.7 | 6.1 | 0.00 | 0.00 | 0.00 | 64 | 1017.8 |
| 20260502113505 | 56 | 118 | 1.7 | 3.5 | 0.00 | 0.00 | 0.00 | 63 | 1017.1 |
| 20260502113006 | 56 | 109 | 1.7 | 6.1 | 0.00 | 0.00 | 0.00 | 65 | 1017.1 |
| 20260502112505 | 55 | 108 | 1.7 | 6.1 | 0.00 | 0.00 | 0.00 | 64 | 1017.8 |
| 20260502111506 | 57 | 108 | 0.9 | 3.5 | 0.00 | 0.00 | 0.00 | 62 | 1018.2 |
| 20260502111005 | 57 | 110 | 1.7 | 3.5 | 0.00 | 0.00 | 0.00 | 65 | 1017.2 |
| 20260502110506 | 58 | 106 | 1.7 | 3.5 | 0.00 | 0.00 | 0.00 | 64 | 1018.1 |
| 20260502110006 | 57 | 90 | 0.9 | 3.5 | 0.00 | 0.00 | 0.00 | 62 | 1017.2 |
| 20260502105505 | 56 | 86 | 1.7 | 3.5 | 0.00 | 0.00 | 0.00 | 63 | 1018.2 |
| 20260502105006 | 57 | 111 | 0.9 | 5.2 | 0.00 | 0.00 | 0.00 | 63 | 1017.6 |
| 20260502104506 | 56 | 128 | 0.9 | 5.2 | 0.00 | 0.00 | 0.00 | 65 | 1018.2 |
| 20260502103505 | 55 | 90 | 2.6 | 3.5 | 0.00 | 0.00 | 0.00 | 65 | 1018.3 |
| 20260502103005 | 54 | 98 | 1.7 | 3.5 | 0.00 | 0.00 | 0.00 | 65 | 1018.4 |
| 20260502102505 | 56 | 126 | 1.7 | 6.1 | 0.00 | 0.00 | 0.00 | 66 | 1017.6 |
| 20260502102005 | 53 | 140 | 2.6 | 6.1 | 0.00 | 0.00 | 0.00 | 66 | 1018.5 |
| 20260502101505 | 54 | 130 | 1.7 | 6.1 | 0.00 | 0.00 | 0.00 | 70 | 1018.4 |
| 20260502101006 | 52 | 120 | 2.6 | 6.1 | 0.00 | 0.00 | 0.00 | 66 | 1018.6 |
| 20260502100505 | 56 | 100 | 1.7 | 6.1 | 0.00 | 0.00 | 0.00 | 66 | 1018.4 |
| 20260502091505 | 55 | 102 | 1.7 | 3.5 | 0.00 | 0.00 | 0.00 | 67 | 1018.7 |
| 20260502090506 | 54 | 103 | 1.7 | 3.5 | 0.00 | 0.00 | 0.00 | 67 | 1018.6 |
| 20260502071506 | 49 | 158 | 0.9 | 5.2 | 0.00 | 0.00 | 0.00 | 62 | 1018.7 |
| 20260502070505 | 49 | 152 | 0.9 | 3.5 | 0.00 | 0.00 | 0.00 | 63 | 1018.8 |
| 20260502065505 | 50 | 140 | 1.7 | 3.5 | 0.00 | 0.00 | 0.00 | 68 | 1018.7 |
| 20260502065005 | 48 | 140 | 1.7 | 3.5 | 0.00 | 0.00 | 0.00 | 67 | 1018.9 |
| 20260502064506 | 48 | 144 | 1.7 | 5.2 | 0.00 | 0.00 | 0.00 | 65 | 1018.7 |
| 20260502064006 | 49 | 149 | 1.7 | 5.2 | 0.00 | 0.00 | 0.00 | 67 | 1018.6 |
| 20260502063505 | 48 | 159 | 1.7 | 5.2 | 0.00 | 0.00 | 0.00 | 65 | 1018.7 |
| 20260502062006 | 48 | 123 | 1.7 | 3.5 | 0.00 | 0.00 | 0.00 | 67 | 1018.5 |
| 20260502061505 | 49 | 133 | 0.0 | 3.5 | 0.00 | 0.00 | 0.00 | 66 | 1018.7 |
| 20260502061006 | 48 | 165 | 2.6 | 3.5 | 0.00 | 0.00 | 0.00 | 65 | 1018.8 |
| 20260502060505 | 48 | 173 | 1.7 | 3.5 | 0.00 | 0.00 | 0.00 | 65 | 1018.8 |
| 20260502060006 | 48 | 189 | 1.7 | 3.5 | 0.00 | 0.00 | 0.00 | 65 | 1018.5 |
| 20260502055505 | 49 | 223 | 0.0 | 1.7 | 0.00 | 0.00 | 0.00 | 68 | 1018.6 |
| 20260502055009 | 49 | 244 | 0.9 | 1.7 | 0.00 | 0.00 | 0.00 | 63 | 1018.6 |
| 20260502054505 | 49 | 0 | 0.0 | 0.0 | 0.00 | 0.00 | 0.00 | 67 | 1018.7 |
| 20260502054005 | 49 | 292 | 0.0 | 1.7 | 0.00 | 0.00 | 0.00 | 69 | 1018.7 |